FW3646 Weather Reports


time (UTC)temp
F
wind
direction
speed
knots
gust
knots
rain 1hr
in
rain 24hr
in
rain mn
in
humidity
%
barometer
mb
20260507035009 50 189 1.7 2.6 0.00 0.30 0.00 92 1013.1
20260507034509 50 189 1.7 2.6 0.00 0.30 0.00 92 1013.0
20260507034005 50 189 0.9 2.6 0.00 0.30 0.00 92 1013.0
20260507033457 50 189 1.7 2.6 0.00 0.30 0.00 92 1012.9
20260507032942 50 189 1.7 2.6 0.00 0.30 0.00 92 1012.9
20260507032717 50 189 1.7 2.6 0.00 0.30 0.00 92 1012.9
20260507031940 50 189 0.9 1.7 0.00 0.30 0.00 92 1012.8
20260507031455 50 189 0.9 2.6 0.00 0.30 0.00 92 1012.8
20260507031449 50 189 1.7 2.6 0.00 0.30 0.00 92 1012.8
20260507030436 50 189 0.9 2.6 0.00 0.30 0.00 92 1012.8
20260507025938 50 189 0.9 2.6 0.00 0.30 0.00 91 1012.8
20260507025706 50 189 0.0 0.0 0.00 0.30 0.00 91 1012.7
20260507024936 50 189 0.0 0.0 0.00 0.30 0.00 91 1012.7
20260507024435 50 189 0.0 0.0 0.00 0.30 0.00 91 1012.6
20260507023937 50 189 0.0 0.0 0.00 0.30 0.00 91 1012.7
20260507023434 50 189 0.0 0.0 0.00 0.30 0.00 91 1012.7
20260507022935 50 189 0.0 1.7 0.00 0.30 0.00 91 1012.7
20260507022436 50 189 0.9 2.6 0.00 0.30 0.00 91 1012.8
20260507021935 50 189 0.9 2.6 0.00 0.30 0.00 91 1012.7
20260507021437 50 196 0.9 1.7 0.00 0.30 0.00 91 1012.7
20260507020908 50 196 0.9 1.7 0.00 0.30 0.00 91 1012.7
20260507020636 50 196 1.7 2.6 0.00 0.30 0.00 91 1012.7
20260507020152 50 196 1.7 2.6 0.00 0.30 0.00 91 1012.7
20260507015407 50 196 1.7 2.6 0.00 0.30 0.00 91 1012.6
20260507014906 50 196 1.7 3.5 0.00 0.30 0.00 92 1012.6
20260507014359 50 196 1.7 3.5 0.00 0.30 0.00 92 1012.6
20260507014137 50 176 1.7 5.2 0.00 0.30 0.00 92 1012.5
20260507013626 50 210 2.6 5.2 0.00 0.30 0.00 92 1012.6
20260507013622 50 179 2.6 5.2 0.00 0.30 0.00 92 1012.7
20260507012353 50 199 1.7 4.3 0.00 0.30 0.00 91 1012.6
20260507011911 50 174 0.9 2.6 0.00 0.30 0.00 91 1012.5
20260507011902 50 174 0.9 4.3 0.00 0.30 0.00 91 1012.5
20260507010844 50 173 1.7 2.6 0.00 0.30 0.00 91 1012.5
20260507010345 50 174 1.7 4.3 0.00 0.30 0.00 91 1012.4
20260507005842 50 173 1.7 4.3 0.00 0.30 0.00 91 1012.4
20260507005616 50 183 0.9 3.5 0.00 0.30 0.00 91 1012.3
20260507004840 50 210 1.7 2.6 0.00 0.30 0.00 91 1012.2
20260507004336 50 210 1.7 2.6 0.00 0.30 0.00 90 1011.3
20260507003844 50 210 1.7 2.6 0.00 0.30 0.00 90 1012.1
20260507003840 50 210 1.7 2.6 0.00 0.30 0.00 90 1012.1
20260507002840 51 210 1.7 2.6 0.00 0.30 0.00 90 1012.0
20260507002337 51 210 1.7 2.6 0.00 0.30 0.00 90 1012.1
20260507001827 51 210 1.7 3.5 0.00 0.30 0.00 90 1012.1
20260507001326 51 210 1.7 3.5 0.00 0.30 0.00 90 1012.2
20260507000826 51 210 2.6 3.5 0.00 0.30 0.00 90 1012.2
20260507000328 51 210 2.6 3.5 0.00 0.30 0.00 89 1012.3
20260506235824 51 210 2.6 3.5 0.00 0.30 0.00 89 1012.2
20260506235316 51 210 1.7 3.5 0.00 0.30 0.00 89 1012.2
20260506235048 52 210 1.7 3.5 0.00 0.30 0.00 89 1012.3
20260506234614 52 210 2.6 4.3 0.00 0.30 0.00 89 1012.1
20260506233816 52 212 2.6 4.3 0.00 0.30 0.00 88 1012.1
20260506233312 52 212 2.6 3.5 0.00 0.30 0.00 88 1012.0
20260506232813 52 212 2.6 3.5 0.00 0.30 0.00 88 1012.0
20260506232309 52 212 2.6 3.5 0.00 0.30 0.00 88 1011.9
20260506232046 52 212 2.6 3.5 0.00 0.30 0.00 88 1011.8
20260506231352 52 210 2.6 4.3 0.00 0.30 0.00 88 1011.8
20260506231342 52 212 2.6 3.5 0.00 0.30 0.00 88 1011.8
20260506230311 52 205 2.6 4.3 0.00 0.30 0.00 88 1011.8
20260506225755 53 213 2.6 4.3 0.00 0.30 0.00 88 1011.8
20260506225256 53 210 2.6 4.3 0.00 0.30 0.00 88 1011.8
20260506224750 53 210 2.6 4.3 0.00 0.30 0.00 88 1011.7
20260506224251 53 199 2.6 5.2 0.00 0.30 0.00 88 1011.8
20260506223748 53 193 2.6 5.2 0.00 0.30 0.00 88 1011.7
20260506223242 53 213 2.6 4.3 0.00 0.31 0.00 88 1011.6
20260506222742 53 211 2.6 4.3 0.00 0.31 0.00 89 1011.6
20260506222234 53 206 1.7 3.5 0.00 0.31 0.00 89 1011.5
20260506221735 53 204 0.9 3.5 0.00 0.31 0.00 89 1011.5
20260506221509 54 210 0.0 0.0 0.00 0.31 0.00 89 1011.5
20260506220953 54 210 0.0 0.0 0.00 0.31 0.00 89 1011.5
20260506220224 54 210 0.0 0.0 0.00 0.31 0.00 89 1011.4
20260506215716 54 210 0.0 0.0 0.00 0.31 0.31 89 1011.3
20260506215215 54 210 0.0 0.9 0.00 0.31 0.31 89 1011.3
20260506214709 54 210 0.0 1.7 0.01 0.31 0.31 89 1011.2
20260506214209 54 210 0.9 3.5 0.01 0.31 0.31 89 1011.2
20260506213710 54 210 0.9 3.5 0.01 0.31 0.31 89 1011.1
20260506213209 54 210 0.9 2.6 0.02 0.31 0.31 89 1011.1
20260506212701 54 210 0.9 2.6 0.02 0.31 0.31 89 1011.0
20260506212159 54 210 0.9 4.3 0.02 0.31 0.31 89 1010.9
20260506211650 54 205 0.9 4.3 0.02 0.31 0.31 88 1010.8
20260506211151 54 208 0.9 4.3 0.02 0.31 0.31 88 1010.0
20260506210643 54 203 0.9 3.5 0.02 0.31 0.31 88 1010.6
20260506210139 54 206 0.9 5.2 0.02 0.31 0.31 88 1010.7
20260506205637 55 206 0.9 5.2 0.02 0.31 0.31 89 1010.6
20260506205137 55 220 0.9 4.3 0.02 0.31 0.30 89 1010.6
20260506204638 55 190 1.7 7.0 0.01 0.30 0.30 89 1010.5
20260506204136 56 202 1.7 7.0 0.01 0.30 0.30 89 1010.5
20260506203637 56 218 0.9 4.3 0.01 0.30 0.30 89 1010.3
20260506203351 56 184 0.9 4.3 0.00 0.29 0.29 89 1010.3
20260506202611 56 244 0.9 4.3 0.00 0.29 0.29 90 1010.2
20260506202109 56 200 0.9 3.5 0.00 0.29 0.29 90 1010.1
20260506201608 56 200 0.9 3.5 0.00 0.29 0.29 90 1010.2
20260506201046 56 197 0.9 4.3 0.00 0.29 0.29 90 1010.0
20260506200548 56 237 0.9 4.3 0.00 0.29 0.29 90 1009.9
20260506200318 56 212 0.0 2.6 0.00 0.29 0.29 90 1009.9
20260506195549 56 217 0.9 2.6 0.00 0.29 0.29 90 1009.9
20260506195045 56 217 1.7 2.6 0.00 0.29 0.29 90 1009.8
20260506194536 56 201 1.7 3.5 0.00 0.29 0.29 90 1009.8
20260506194053 56 208 0.9 3.5 0.00 0.29 0.29 90 1009.6
20260506193537 56 208 1.7 3.5 0.00 0.29 0.29 90 1009.7
20260506193036 56 208 1.7 5.2 0.00 0.29 0.29 90 1009.6
20260506192800 56 208 1.7 6.1 0.00 0.29 0.29 90 1009.4
20260506192301 56 212 2.6 6.1 0.00 0.29 0.29 90 1009.4
20260506191534 56 214 1.7 5.2 0.00 0.29 0.29 90 1009.3
20260506191056 57 89 0.0 0.0 0.00 0.29 0.29 90 1008.3
20260506191046 57 164 0.0 3.5 0.00 0.29 0.29 90 1008.7
20260506190019 57 88 0.0 0.0 0.00 0.30 0.29 90 1008.3
20260506185744 57 31 0.0 0.0 0.00 0.30 0.29 90 1008.1
20260506185009 57 31 0.0 0.0 0.00 0.30 0.29 89 1007.5
20260506184508 57 24 0.0 0.0 0.00 0.30 0.29 89 1007.9
20260506184235 57 24 0.0 0.0 0.00 0.30 0.29 89 1007.8
20260506183511 57 24 0.9 3.5 0.00 0.30 0.29 89 1007.5
20260506183008 57 23 1.7 5.2 0.01 0.30 0.29 89 1007.1
20260506182454 57 359 2.6 7.8 0.01 0.31 0.29 89 1006.9
20260506181954 57 347 3.5 7.8 0.02 0.31 0.29 89 1006.7
20260506181452 57 39 5.2 10.4 0.02 0.31 0.29 89 1006.6
20260506180952 58 343 4.3 11.3 0.03 0.31 0.29 89 1006.6
20260506180451 58 359 2.6 11.3 0.05 0.31 0.29 90 1006.6
20260506175952 58 312 1.7 6.1 0.08 0.31 0.29 89 1006.4
20260506175450 58 4 1.7 6.1 0.24 0.31 0.29 89 1006.3
20260506174949 58 35 1.7 7.0 0.28 0.31 0.29 89 1006.4
20260506174721 58 323 1.7 7.8 0.28 0.31 0.29 88 1006.4
20260506173948 58 304 3.5 12.2 0.28 0.31 0.29 88 1006.5
20260506173448 58 320 4.3 12.2 0.28 0.31 0.29 87 1006.5
20260506172947 58 317 4.3 12.2 0.28 0.31 0.28 87 1006.4
20260506172447 59 330 4.3 12.2 0.28 0.31 0.28 85 1006.3
20260506171944 59 308 4.3 9.6 0.27 0.30 0.28 84 1006.0
20260506171444 59 18 3.5 9.6 0.26 0.29 0.27 82 1005.9
20260506170945 60 330 4.3 13.0 0.25 0.28 0.26 81 1005.7
20260506170744 61 311 8.7 21.7 0.24 0.27 0.24 78 1005.7
20260506170213 62 313 12.2 21.7 0.20 0.24 0.20 75 1005.5
20260506165443 65 320 13.0 26.9 0.04 0.07 0.03 67 1004.9
20260506164942 68 308 11.3 26.9 0.00 0.03 0.01 55 1004.1
20260506164442 71 321 7.0 24.3 0.00 0.03 0.01 49 1003.5
20260506163940 73 253 2.6 9.6 0.00 0.03 0.01 41 1003.5
20260506163440 74 305 0.9 2.6 0.00 0.03 0.01 39 1002.7
20260506163215 74 4 0.0 2.6 0.00 0.03 0.01 39 1002.6
20260506163209 74 63 0.0 2.6 0.00 0.03 0.01 40 1002.4
20260506161935 74 45 0.0 2.6 0.00 0.03 0.01 38 1002.5
20260506161436 75 75 0.0 2.6 0.00 0.03 0.01 40 1003.0
20260506161201 75 75 0.9 2.6 0.00 0.03 0.01 38 1003.0
20260506160411 75 77 0.0 2.6 0.00 0.03 0.01 38 1003.3
20260506155910 76 56 0.0 1.7 0.00 0.03 0.01 39 1003.4
20260506155348 76 125 0.0 0.9 0.00 0.03 0.01 39 1003.5
20260506154848 76 81 0.0 0.9 0.00 0.03 0.01 38 1003.7
20260506154607 76 81 0.0 2.6 0.00 0.03 0.01 37 1003.6
20260506153809 77 81 0.0 2.6 0.00 0.03 0.01 36 1003.6
20260506153308 77 42 0.0 1.7 0.00 0.03 0.01 37 1003.6
20260506153041 77 111 0.9 2.6 0.00 0.03 0.01 37 1003.7
20260506152308 77 4 0.9 4.3 0.00 0.03 0.01 37 1003.6
20260506152029 78 154 0.9 4.3 0.00 0.03 0.01 37 1003.7
20260506151258 78 168 0.9 2.6 0.00 0.03 0.01 36 1004.0
20260506150739 78 56 0.9 2.6 0.00 0.03 0.01 37 1003.8
20260506150239 78 133 0.9 2.6 0.00 0.03 0.01 37 1004.0
20260506145739 78 50 1.7 4.3 0.00 0.03 0.01 37 1004.2
20260506145237 78 21 1.7 4.3 0.00 0.03 0.01 36 1004.3
20260506144736 78 143 0.9 4.3 0.00 0.03 0.01 34 1004.5
20260506144237 79 179 0.9 4.3 0.00 0.03 0.01 34 1004.5
20260506143736 79 161 0.9 2.6 0.00 0.03 0.01 36 1004.6
20260506143238 79 111 0.9 3.5 0.00 0.03 0.01 35 1004.6
20260506142736 79 62 1.7 4.3 0.00 0.03 0.01 35 1004.6
20260506142236 79 64 1.7 4.3 0.00 0.03 0.01 36 1004.6
20260506141715 80 143 0.9 3.5 0.00 0.03 0.01 36 1004.6
20260506141214 79 156 1.7 5.2 0.00 0.03 0.01 36 1004.9
20260506140711 80 68 2.6 5.2 0.00 0.03 0.01 36 1004.9
20260506140210 81 197 2.6 5.2 0.00 0.03 0.01 35 1006.0
20260506135638 81 197 1.7 6.1 0.00 0.03 0.01 34 1005.1
20260506135141 81 141 1.7 5.2 0.00 0.03 0.01 34 1005.1
20260506134638 81 170 1.7 5.2 0.00 0.03 0.01 34 1005.2
20260506134135 82 58 0.9 4.3 0.00 0.03 0.01 33 1005.2
20260506133636 81 183 0.9 4.3 0.00 0.03 0.01 35 1005.3
20260506133113 81 197 0.9 5.2 0.00 0.03 0.01 36 1005.3
20260506132612 80 39 1.7 7.0 0.00 0.03 0.01 35 1005.3
20260506132109 80 68 2.6 7.0 0.00 0.03 0.01 34 1005.5
20260506131838 80 222 2.6 5.2 0.00 0.03 0.01 35 1005.5
20260506131108 81 185 1.7 5.2 0.00 0.03 0.01 33 1005.6
20260506130608 82 183 0.9 4.3 0.00 0.03 0.01 35 1005.7
20260506130108 82 199 1.7 4.3 0.00 0.03 0.01 36 1005.7
20260506125607 82 152 1.7 6.1 0.00 0.03 0.01 36 1005.8
20260506125337 81 23 0.9 6.1 0.00 0.03 0.01 38 1005.8
20260506124606 81 127 1.7 9.6 0.00 0.03 0.01 38 1005.9
20260506124103 81 201 1.7 9.6 0.00 0.03 0.01 38 1006.0
20260506123602 82 170 1.7 6.1 0.00 0.03 0.01 38 1005.8
20260506123053 81 114 1.7 5.2 0.00 0.03 0.01 39 1005.9
20260506122553 81 165 1.7 6.1 0.00 0.03 0.01 42 1006.0
20260506122331 80 116 1.7 6.1 0.00 0.03 0.01 42 1006.1
20260506121551 80 54 1.7 6.1 0.00 0.03 0.01 42 1006.2
20260506121051 79 126 0.9 6.1 0.00 0.03 0.01 42 1006.3
20260506120550 78 189 1.7 7.0 0.00 0.03 0.01 45 1006.3
20260506120047 78 86 1.7 7.8 0.00 0.03 0.01 45 1007.3
20260506115534 78 62 1.7 7.8 0.00 0.03 0.01 45 1006.5
20260506115034 77 27 1.7 7.0 0.00 0.03 0.01 45 1006.7
20260506114532 77 64 1.7 7.0 0.00 0.03 0.01 46 1006.8
20260506114256 77 131 0.9 5.2 0.00 0.03 0.01 47 1006.9
20260506113531 76 108 0.0 3.5 0.00 0.03 0.01 49 1007.1
20260506113028 76 92 0.9 4.3 0.00 0.03 0.01 48 1007.1
20260506112756 75 143 1.7 5.2 0.00 0.03 0.01 48 1007.3
20260506112254 75 115 1.7 5.2 0.00 0.03 0.01 50 1007.4
20260506111515 75 35 1.7 5.2 0.00 0.03 0.01 50 1007.4
20260506111010 75 169 0.9 5.2 0.00 0.03 0.01 52 1007.5
20260506110523 74 201 0.9 3.5 0.00 0.03 0.01 51 1007.7
20260506105955 74 198 0.9 4.3 0.00 0.03 0.01 51 1007.7
20260506105454 74 37 0.9 4.3 0.00 0.03 0.01 50 1007.7
20260506105214 74 137 0.9 3.5 0.00 0.03 0.01 52 1007.8
20260506104711 73 209 0.9 4.3 0.00 0.03 0.01 52 1007.9
20260506103940 73 126 0.9 4.3 0.00 0.03 0.01 54 1008.0
20260506103437 73 16 1.7 7.0 0.00 0.03 0.01 54 1008.0
20260506102934 73 36 2.6 7.0 0.00 0.03 0.01 53 1008.0
20260506102427 74 8 0.9 4.3 0.00 0.03 0.01 50 1008.6
20260506102200 75 39 0.9 4.3 0.00 0.03 0.01 50 1008.2
20260506101417 75 126 0.9 4.3 0.00 0.03 0.01 51 1008.2
20260506100913 74 102 0.9 4.3 0.00 0.03 0.01 53 1008.3
20260506100413 73 110 0.9 2.6 0.00 0.03 0.01 55 1008.4
20260506095912 72 48 0.0 2.6 0.00 0.03 0.01 55 1008.4
20260506095407 73 81 0.0 2.6 0.00 0.03 0.01 55 1008.4
20260506094909 72 41 0.9 3.5 0.00 0.03 0.01 54 1008.5
20260506094407 72 91 0.9 3.5 0.00 0.03 0.01 57 1008.6
20260506093909 71 139 0.9 5.2 0.00 0.03 0.01 59 1008.5
20260506093409 71 181 0.9 5.2 0.00 0.03 0.01 61 1008.5
20260506093156 69 39 0.9 4.3 0.00 0.03 0.01 60 1008.4
20260506092406 69 87 0.9 4.3 0.00 0.03 0.01 62 1008.4
20260506091906 69 46 0.9 4.3 0.00 0.03 0.01 62 1008.5
20260506091406 69 83 0.9 2.6 0.00 0.03 0.01 62 1008.6
20260506090908 69 94 0.9 5.2 0.00 0.03 0.01 61 1008.6
20260506090407 69 70 1.7 5.2 0.00 0.03 0.01 62 1008.5
20260506085906 68 157 0.9 3.5 0.00 0.03 0.01 65 1008.6
20260506085405 68 58 1.7 5.2 0.00 0.03 0.01 65 1008.6
20260506084905 67 13 1.7 6.1 0.00 0.03 0.01 64 1008.7
20260506084408 68 62 0.9 6.1 0.00 0.03 0.01 65 1008.6
20260506083906 68 78 0.9 4.3 0.00 0.03 0.01 67 1008.7
20260506083359 68 359 0.0 3.5 0.00 0.03 0.01 66 1008.7
20260506082859 67 155 0.9 4.3 0.00 0.03 0.01 69 1008.9
20260506082353 65 83 0.9 4.3 0.00 0.03 0.01 71 1008.9
20260506081848 65 70 0.9 3.5 0.00 0.03 0.01 71 1008.8
20260506081348 65 48 0.9 5.2 0.00 0.03 0.01 71 1008.8
20260506081108 64 32 0.9 5.2 0.00 0.03 0.01 73 1008.9
20260506080337 64 17 1.7 6.1 0.00 0.03 0.01 73 1008.9
20260506073335 61 14 0.9 3.5 0.00 0.03 0.01 78 1009.2
20260506072823 61 84 0.9 3.5 0.00 0.03 0.01 79 1009.2
20260506072317 61 13 0.9 3.5 0.00 0.03 0.01 80 1009.2
20260506071809 60 30 0.0 1.7 0.00 0.03 0.01 82 1009.2
20260506071539 60 4 0.0 1.7 0.00 0.03 0.01 83 1009.2
20260506070806 60 70 0.0 2.6 0.00 0.03 0.01 84 1009.2
20260506070305 59 70 0.0 2.6 0.00 0.03 0.01 86 1009.3
20260506062235 57 114 0.0 1.7 0.00 0.03 0.01 91 1009.4
20260506062024 57 118 0.9 1.7 0.00 0.03 0.01 91 1009.4
20260506061509 57 118 0.0 1.7 0.00 0.03 0.01 92 1009.4
20260506060734 56 126 0.0 0.0 0.00 0.03 0.01 93 1009.4
20260506060215 56 126 0.0 1.7 0.00 0.03 0.01 93 1009.4
20260506051131 54 146 0.0 0.0 0.00 0.03 0.01 92 1009.6
20260506050638 53 145 0.0 0.0 0.00 0.03 0.01 92 1009.5
20260506050126 53 145 0.0 0.0 0.00 0.03 0.01 92 1009.6
20260506044612 53 145 0.0 0.0 0.00 0.03 0.01 91 1009.6
20260506044109 53 145 0.0 0.0 0.00 0.03 0.01 91 1008.4
20260506043537 53 146 0.0 0.0 0.00 0.03 0.01 91 1009.5
20260506043037 53 146 0.0 0.0 0.00 0.03 0.01 91 1009.4
20260506042537 53 145 0.0 0.0 0.00 0.03 0.01 91 1009.5
20260506042008 53 146 0.0 0.0 0.00 0.03 0.01 91 1009.6
20260506041508 53 145 0.0 0.0 0.00 0.03 0.01 91 1009.6
20260506041008 53 145 0.0 0.0 0.00 0.03 0.01 90 1009.6
20260506040508 53 146 0.0 0.0 0.00 0.03 0.01 90 1009.6
20260506040011 53 146 0.0 0.0 0.00 0.03 0.01 90 1009.8